Regional Weather Roundup
Issued by NWS Goodland, KS

Home | Current Version | Previous Version | Graphics & Text | Print | Product List | Glossary On
Versions: 1 2 3 4 5 6 7 8 9 10 11 12 13 14 15 16 17 18 19 20 21 22 23 24 25 26 27 28 29 30 31 32 33 34 35 36 37 38 39 40 41 42 43 44 45 46 47 48 49 50
985
ASUS43 KGLD 170259
RWRGLD

GOODLAND FORECAST AREA HOURLY WEATHER ROUNDUP
NATIONAL WEATHER SERVICE GOODLAND KS
900 PM MDT MON OCT 16 2017

...OFFICIAL OBSERVATIONS...

CITY           SKY/WX    TMP DP  RH WIND       PRES   REMARKS
GOODLAND KS    CLOUDY    54  33  45 SW9       30.15S
HILL CITY KS   PTCLDY    60  37  42 SW8       30.13S
IMPERIAL NEB   CLEAR     51  31  46 W5        30.14R
MCCOOK NEB     PTCLDY    58  39  49 SW8       30.10R
AKRON CO       CLOUDY    58  14  17 NE9       30.21R
BURLINGTON CO  CLOUDY    51  29  42 SW9       30.19R
LIMON CO       CLOUDY    34  24  67 CALM      30.26R
$$

...UNOFFICIAL OBSERVATIONS...

CITY           SKY/WX    TMP DP  RH WIND       PRES   REMARKS
NORTON KS      CLEAR     57  30  35 S13G18    30.10S
SHARON SPRINGS   N/A     57  37  47 S8          N/A
TRENTON NEB      N/A     60  32  34 W5          N/A
KIT CARSON CO    N/A     48  30  50 MISG        N/A
YUMA CO        FAIR      46  30  53 CALM      30.18R
$$




USA.gov is the U.S. government's official web portal to all federal, state and local government web resources and services.